{"data":{"norad_id":65990,"intl_designator":"2025-230S","name":"SDA_1680","alt_names":[],"object_type":"PAYLOAD","status":"ACTIVE","operator":null,"country":"US","launch_date":"2025-10-15","launch_site_code":"AFWTR","launch_vehicle":null,"mission":null,"orbit_class":"UNKNOWN","rcs_meters":null,"size_class":null,"mass_kg":null,"dimensions":null,"purposes":[],"wikipedia_slug":null,"has_3d_model":false,"image_url":null,"decayed_at":null,"tle_current":{"epoch":"2026-05-24T23:02:12.492384Z","epoch_age_seconds":89250,"freshness":"FRESH","line1":"1 65990U 25230S   26144.95986681  .00000117  00000+0  92551-4 0  9994","line2":"2 65990  81.3018 233.1298 0002925 253.3748 106.7088 13.85227489 30608","mean_motion":13.85227489,"eccentricity":0.0002925,"inclination_deg":81.3018,"raan_deg":233.1298,"arg_perigee_deg":253.3748,"mean_anomaly_deg":106.7088,"bstar":9.2551e-5,"rev_number":3060,"period_min":103.95404447536,"perigee_km":943.26169383205,"apogee_km":947.54596521732,"semimajor_km":7323.5408295247,"source":"CELESTRAK","updated_at":"2026-05-25T13:38:05.881113Z"}}}